Location: Unspecified
(0.0000°N, 0.0000°E)
Time: 22:51:41
(UTC+00:00)

ISS - Pass Details

Date: 12 January 2026
Orbit: 414 x 424 km, 51.6° (Epoch: 13 January)

Event Time Altitude Azimuth Distance (km) Brightness Sun altitude
Exits shadow 05:03:46 10° 230° (SW) 1,497 -1.2 -14.9°
Drops below altitude 10° 05:03:59 10° 226° (SW) 1,505 -1.2 -14.9°
Sets 05:07:57 0° 180° (S) 2,373 0.4 -14.0°
